Princeton, IL

11:40 PM CDT on September 28, 2016 (GMT -0500)
APRSWXNET | | Change Station

Elev 699 ft 41.36 °N, 89.47 °W | Updated 94 days ago

Clear
Clear
55 °F
Feels Like 55 °F
N
12
Wind Variable Wind from North
Gusts 21 mph

Today
High -- | Low -- °F
--% Chance of Precip.
Yesterday
High -- | Low -- °F
Precip. -- in
Pressure 30.13 in
Visibility 10.0 miles
Clouds Mostly Cloudy 6500 ft
Mostly Cloudy 8000 ft
Dew Point 50 °F
Humidity 81%
Rainfall in
Snow Depth Not available.
6:52 AM 6:43 PM
Waning Crescent, 3% visible
METAR KVYS 290415Z AUTO 34009KT 10SM BKN065 BKN080 13/10 A3013 RMK AO2 T01330101
Pressure 30.13 in
Visibility 10.0 miles
Clouds Mostly Cloudy 6500 ft
Mostly Cloudy 8000 ft
Dew Point 50 °F
Humidity 81%
Rainfall in
Snow Depth Not available.
6:52 AM 6:43 PM
Waning Crescent, 3% visible
METAR KVYS 290415Z AUTO 34009KT 10SM BKN065 BKN080 13/10 A3013 RMK AO2 T01330101

10-Day Weather Forecast

Almanac

Astronomy

Sep. 28, 2016 Rise Set
Actual Time
Civil Twilight
Nautical Twilight
Astronomical Twilight
Moon
Length of Visible Light
Length of Day
Tomorrow will be .
, % of the Moon is Illuminated

Today's Extremes

State Highs State Lows

Community

WunderPhotos

Upload Photos

1,942,432 photos uploaded!

WunderBlog® & News

Nearby

Air Quality

  Air Quality AQ Index Pollutant
Not available.

Snow Depth

Station Depth Elevation

Earthquake Activity

City Distance Mag. Time & Date
Minimum magnitude displayed is 2.5.

Coastal Water Temperatures

Place Temperature

Stations

Nearby Weather Stations

Station Location Temp. Windchill Dew Point Humidity Wind Precip. Elev Updated Type
                   

Watches & Warnings

There are currently no watches in effect.